Starlink 32224

operational
NORAD ID: 60941 Int'l Des: 2024-155 Owner: SPXS Country: US Constellation: starlink
LEOCIRCULAR

Über Starlink 32224

Beschreibung wird geladen...

Live-Position

3D-Globus wird geladen...

Nächste Überflüge

Höhenverlauf

Altitude vs Time

uPlot chart will show altitude changes over time

Zweizeiliger Elementsatz

1 60941U 24155T 25351.61187395 -.00000127 00000-0 78473-5 0 9998
2 60941 53.1603 150.9636 0001112 88.5269 271.5859 15.30198996 73786
Epoch: 17. Dez. 2025 • Age: 8 hours

Aktueller Status

Höhe 484.0 km
Geschwindigkeit 7.62 km/s
Subsatellitenpunkt -27.84°S, 63.99°E
Startdatum 31. Aug. 2024
Alter 1.2 years
Typ internet

Technische Details

Klassifizierung Payload
Masse 730.00 kg
Trockenmasse 700.00 kg
Gesamtmasse 730.00 kg
Länge 0.30 m
Durchmesser 4.10 m
Spannweite 29.00 m
Form Box + pan
Hersteller SPXS
Bus-Typ Starlink V2M
Phasenstatus In Orbit
Besitzer/Staat SPXS/US

Große Konstellationen

Loading constellations...